www.pogodaiklimat.ru

Погода и климат >> Архив погоды >> Украина >> Белая Церковь


ПОГОДА в Белой Церкви

АРХИВ ПОГОДЫ в Белой Церкви

Время (UTC), дата Ветер
(напр.,м/с)
 
Видим.   Явления Облачность Т
(С)
Тd
(С)
f
(%)
Тe
(С)
Тes
(С)
Комфортность P
(гПа)
Po
(гПа)
Тmin
(С)
Tmax
(С)
R
(мм)
R24
(мм)
S
(см)
15 16.09 З 7 20 км 9/6 1000 м
[Cb calv Ac trans]
+21.5 +7.3 40 +22 +22 комфорт 1010.0 989.2
18 16.09 З 4 18 км 8/6 1000 м
[Sc Ci fib]
+18.8 +6.9 46 +19 +19 тепло 1010.0 989.0 +24.4
21 16.09 З 3 16 км 9/9 1000 м
[Cb calv]
+17.1 +4.4 43 +17 +17 тепло 1010.0 988.8
00 17.09 З 3 15 км 9/8 1000 м
[Cb calv Ac trans]
+15.7 +5.0 49 +15 +15 тепло 1010.0 988.7
03 17.09 З 3 12 км {ливн. осадки} 9/9 1000 м
[Cb calv]
+13.3 +7.3 67 +12 +12 по сезону 1010.0 988.6
06 17.09 З 5 10 км {ливн. осадки} 8/3 1000 м
[Cb calv Ac As Cs]
+13.6 +5.5 58 +12 +12 по сезону 1011.0 989.6 +12.6 0.0
09 17.09 З 7 20 км 6/4 1000 м
[Cu hum Cs]
+16.9 +3.2 40 +16 +17 тепло 1010.0 988.8
12 17.09 З 7 20 км ясно +18.6 -0.3 28 +18 +20 по сезону 1009.0 988.0
15 17.09 З 5 20 км 3/0
[Cc]
+18.4 0.0 29 +18 +18 тепло 1007.0 986.0
18 17.09 ЮЗ 3 18 км 6/3 1000 м
[Sc Ac und Ci fib]
+14.0 +3.2 48 +13 +13 по сезону 1008.0 986.7 +19.4
21 17.09 ЮЗ 3 16 км 8/4 1000 м
[Sc Ac und]
+13.3 +4.4 55 +12 +12 по сезону 1007.0 985.6
00 18.09 ЮЗ 4 14 км 4/0
[Ac und Ci fib]
+11.8 +9.2 84 +10 +10 по сезону 1005.0 983.6
03 18.09 ЮЗ 6 12 км 4/3 1000 м
[Sc Ac und Ci fib]
+12.6 +8.5 76 +10 +10 по сезону 1004.0 982.7
06 18.09 З 10 20 км {ливн. осадки} 4/4 1000 м
[Cb calv]
+10.3 +2.6 59 +6 +6 прохладно 1006.0 984.4 +9.5 0.3
09 18.09 З 9 20 км в посл. час ливневой дождь 8/8 1000 м
[Cb calv]
+10.6 +3.6 62 +7 +7 холодно 1008.0 986.4
12 18.09 З 11 20 км {ливн. осадки} 6/6 1000 м
[Sc]
+13.9 +0.5 40 +11 +11 холодно 1008.0 986.6 0.1
15 18.09 З 8 10 км {ливн. осадки} 9/9 600 м
[Cb calv]
+10.2 +6.2 76 +6 +6 очень
холодно
1011.0 989.3
18 18.09 З 8 16 км {ливн. осадки} 6/6 1000 м
[Cb calv]
+10.0 +5.8 75 +6 +6 холодно 1013.0 991.3 +14.3 0.4
21 18.09 З 5 13 км 3/3 1000 м
[Sc]
+8.9 +5.6 80 +5 +5 холодно 1016.0 994.1
00 19.09 З 5 12 км ясно +8.5 +5.4 81 +5 +5 холодно 1017.0 995.1
03 19.09 З 4 10 км ясно +6.3 +4.0 85 +3 +3 очень
холодно
1018.0 995.9
06 19.09 З 6 10 км ясно +8.6 +4.4 75 +5 +6 холодно 1019.0 997.0 +6.1
09 19.09 З 7 20 км 8/6 1000 м
[Cb calv Ac trans Ci fib]
+13.6 NAN ? +12 +12 по сезону 1019.0 0.0
12 19.09 З 6 20 км 8/6 1000 м
[Cb calv Ac trans]
+13.8 +3.0 48 +12 +12 холодно 1019.0 997.4
15 19.09 З 6 20 км 6/3 1000 м
[Cb calv Ac trans]
+13.8 +2.4 46 +12 +12 прохладно 1019.0 997.4
18 19.09 З 3 17 км 1/0
[Ac trans]
+9.4 +3.8 68 +7 +7 холодно 1020.0 998.1 +14.8
21 19.09 З 3 10 км ясно +6.6 +3.7 82 +4 +4 очень
холодно
1020.0 997.8
00 20.09 ЮЗ 2 12 км ?/? +4.2 +2.7 90 +1 +1 очень
холодно
1020.0 997.6
03 20.09 З 1 9000 м дымка 3/3 1000 м
[Sc Ac trans]
+3.6 +3.2 97 +2 +2 очень
холодно
1020.0 997.6
06 20.09 З 4 10 км 9/8 1000 м
[Sc Ac trans]
+6.8 +5.0 88 +3 +3 холодно 1020.0 997.9 +3.5
09 20.09 СЗ 4 10 км 9/8 1000 м
[Cu Sc Ac trans]
+11.4 +4.8 64 +9 +10 прохладно 1019.0 997.2
12 20.09 СЗ 8 20 км 8/6 1000 м
[Cb calv Ac trans]
+13.3 +1.3 44 +11 +11 холодно 1018.0 996.4
15 20.09 СЗ 7 20 км 8/8 1000 м
[Cu Sc]
+10.2 +1.3 54 +7 +7 очень
холодно
1019.0 997.1
18 20.09 З 3 16 км 6/3 1000 м
[Sc Ac trans]
+6.0 +1.5 73 +3 +3 очень
холодно
1021.0 998.8 +13.3
21 20.09 З 3 14 км 3/0
[Ac trans]
+5.0 +2.4 83 +2 +2 очень
холодно
1021.0 998.7
00 21.09 СЗ 3 10 км ясно +3.2 +1.4 88 -1 -1 очень
холодно
1022.0 999.5
03 21.09 СЗ 3 10 км 3/3 1000 м
[Sc]
+2.0 +0.8 92 -2 -2 очень
холодно
1023.0 1000.4
06 21.09 СЗ 5 10 км 5/0
[Ci fib]
+5.0 +1.5 78 0 +1 очень
холодно
1024.0 1001.6 +1.0
09 21.09 СЗ 5 20 км 5/3 1000 м
[Cu hum Ci fib]
+10.9 -1.5 42 +9 +10 прохладно 1024.0 1002.1
12 21.09 З 5 20 км 5/3 1000 м
[Cu hum Ac und Ci fib]
+14.0 -3.3 30 +13 +14 прохладно 1022.0 1000.3
15 21.09 З 5 20 км 9/5 1000 м
[Cb calv Ac und]
+13.4 -0.6 38 +12 +12 прохладно 1020.0 998.3
18 21.09 З 5 15 км 9/6 600 м
[Cb calv Ac und]
+10.0 +7.8 86 +7 +7 холодно 1020.0 998.1 +14.3
21 21.09 З 5 10 км {ливн. осадки} 9/9 1000 м
[Cb calv]
+10.5 +9.6 94 +7 +7 прохладно 1019.0 997.2
00 22.09 З 6 12 км {ливн. осадки} 9/5 1000 м
[Cb calv Ac und]
+12.5 +9.1 80 +10 +10 по сезону 1017.0 995.4
03 22.09 З 6 12 км 9/8 1000 м
[Cb calv Ac und]
+12.6 +8.5 76 +10 +10 по сезону 1016.0 994.4
06 22.09 З 6 10 км 10/8 1000 м
[Sc Ac As]
+13.0 +8.7 75 +11 +11 по сезону 1017.0 995.4 +10.1 0.0
09 22.09 З 6 10 км 10/8 900 м
[Cb calv Ac As]
+14.0 +8.6 70 +12 +12 по сезону 1017.0 995.5
12 22.09 З 7 20 км 6/6 1000 м
[Cu Sc]
+17.3 +8.4 56 +16 +17 по сезону 1016.0 994.8
15 22.09 З 5 10 км ясно +17.6 +8.2 54 +17 +17 тепло 1014.0 992.8
18 22.09 ЮЗ 3 15 км ясно +12.2 +7.7 74 +11 +11 по сезону 1014.0 992.4 +18.2
21 22.09 З 1 10 км ясно +9.3 +6.7 84 +9 +9 по сезону 1015.0 993.2
00 23.09 З 1 10 км 6/0
[Ac und Ci fib]
+8.2 +6.7 90 +7 +7 прохладно 1016.0 994.1
03 23.09 СВ 2 10 км 10 баллов +8.5 +6.0 84 +7 +7 прохладно 1017.0 995.1
06 23.09 СВ 3 10 км 10/10 1000 м
[Sc]
+8.4 +4.6 77 +6 +6 прохладно 1019.0 997.0 +8.1
09 23.09 СВ 3 10 км 10 баллов +8.6 +2.4 65 +6 +6 очень
холодно
1021.0 999.0
12 23.09 СВ 2 10 км 10 баллов +10.5 +2.3 57 +9 +9 очень
холодно
1020.0 998.1

 

Местоположение метеостанции Белая Церковь (Киевская область, Украина): широта 49.75 долгота 30.12 высота над уровнем моря 180 м.

В архиве по умолчанию представлена погода в Белой Церкви за последнюю неделю. Архивные данные за месяц целиком и за предыдущие месяцы, начиная с января 2011 года, Вы можете получить, выбрав интересующий диапазон дат из раскрывающегося списка и нажав кнопку "Ввод!".


*Определитесь, кто Вы:
робот инопланетянин человек

Внимание! Время в таблицах - всемирное. Для получения местного времени необходимо прибавить поправку, которая равна 2 ч.

Смотрите также архив погоды в соседних городах и на ближайших метеорологических станциях:

Погода в Фастове (Киевская область, Украина) (39 км)
Погода в Жашкове (Черкасская область, Украина) (56 км)
Погода в Мироновке (Киевская область, Украина) (64 км)
Погода в Киеве (город Киев, Украина) (79 км)
Погода в Борисполе (Киевская область, Украина) (89 км)
Погода в Белополе (Винницкая область, Украина) (89 км)
Погода в Звенигородке (Черкасская область, Украина) (93 км)
Погода в Вышгороде (Киевская область, Украина) (96 км)
Погода в Каневе (Черкасская область, Украина) (101 км)
Погода в Умани (Черкасская область, Украина) (109 км)

Пояснения к столбцам:

Ветер - указаны скорость ветра в м/с - средняя за 10 мин, порывы в срок и между сроками (в фигурных скобках) и направление, откуда дует ветер: С - северный, СВ - северо-восточный, В - восточный, ЮВ - юго-восточный, Ю - южный, ЮЗ - юго-западный, З - западный, СЗ - северо-западный.
Видимость - горизонтальная дальность видимости в метрах или километрах. При видимости от 1 до 10 км при отсутствии осадков обычно наблюдается дымка, при ухудшении видимости до 1 км и менее - туман. В сухую погоду видимость может ухудшаться дымом, пылью или мглою.
Явления - указаны атмосферные явления, наблюдавшиеся в срок или в последний час перед сроком; фигурными скобками обозначены явления, наблюдавшиеся между сроками (за 1-3 часа до срока); квадратными скобками обозначены град или гололедные отложения с указанием их диаметра в мм.
Облачность - указаны через наклонную черту общая и нижняя облачность в баллах и высота нижней границы облаков в метрах; квадратными скобками обозначены формы облаков: Ci - перистые, Cs - перисто-слоистые, Cc - перисто-кучевые, Ac - высококучевые, As - высокослоистые, Sc - слоисто-кучевые, Ns - слоисто-дождевые, Cu - кучевые, Cb - кучево-дождевые. Подробнее классификацию облаков см. в Атласе облаков (PDF).
T - Температура воздуха - температура, измеренная на высоте 2 м над землей.
Td - Температура точки росы - температура, при понижении до которой содержащийся в воздухе водяной пар достигнет насыщения.
f - Относительная влажность воздуха - влажноcть воздуха, измеренная на высоте 2 м над землей.
Te - Эффективная температура - температура, которую ощущает одетый по сезону человек в тени. Характеристика душности погоды. При расчете учитывается влияние влажности воздуха и скорости ветра на теплоощущения человека.
Tes - Эффективная температура на солнце - температура, которую ощущает человек, с поправкой на солнечный нагрев. Характеристика знойности погоды. Зависит от высоты солнца над горизонтом, облачности и скорости ветра. Ночью, в пасмурную погоду, а также при ветре 12 м/с и более поправка равна нулю.
P - Атмосферное давление - приведенное к уровню моря атмосферное давление.
Po - Атмосферное давление - измеренное на уровне метеостанции атмосферное давление.
Tmin - Минимальная температура - минимум температуры воздуха на высоте 2 м над землей.
Tmax - Максимальная температура - максимум температуры воздуха на высоте 2 м над землей.
R - Количество осадков - Количество выпавших осадков за период времени, мм. При наведении курсора мыши на число - период времени, за который выпало указанное количество осадков.
R24 - Количество осадков - Количество выпавших осадков за 24 часа, мм.
S - Снежный покров - Высота снежного покрова, см. При наведении курсора мыши на число - состояние снежного покрова и степень покрытия местности в баллах.